Change the Weather History Date:

Tuesday, March 25, 2014

  Actual Average Record
Temperature  
Mean Temperature 52 °F -  
Max Temperature 68 °F 68 °F 84 °F (2002)
Min Temperature 36 °F 44 °F 36 °F (2014)
Degree Days  
Heating Degree Days 13    
Growing Degree Days 2 (Base 50)    
Moisture  
Dew Point 42 °F    
Average Humidity 68    
Maximum Humidity 93    
Minimum Humidity 23    
Precipitation  
Precipitation 0.00 in 0.12 in - ()
Sea Level Pressure  
Sea Level Pressure 30.34 in    
Wind  
Wind Speed 4 mph ()    
Max Wind Speed 8 mph    
Max Gust Speed -    
Visibility 5.2 miles    
Events Fog    
Averages and records for this station are not official NWS values.
T = Trace of Precipitation, MM = Missing Value Source: Averaged Metar Reports

Daily Weather History Graph

Daily Weather History Graph

Search for Another Location

Airport or City:

Trip Planner

Search our weather history database for the weather conditions in past years. The results will help you decide how hot, cold, wet, or windy it might be!

Date:

Astronomy

Mar. 25, 2014 Rise Set
Actual Time 6:17 AM WET 6:35 PM WET
Civil Twilight 5:52 AM WET 7:00 PM WET
Nautical Twilight 5:22 AM WET 7:29 PM WET
Astronomical Twilight 4:53 AM WET 7:59 PM WET
Moon 2:12 AM WET (3/25) 1:03 PM WET (3/25)
Length of Visible Light 13h 08m
Length of Day
12h 18m
Waning Crescent, 34% of the Moon is Illuminated
Mar 25
Waning Crescent
Mar 30
New
Apr 7
First Quarter
Apr 15
Full
Apr 22
Last Quarter

Hourly Weather History & Observations

Time (WET) Temp. Windchill Dew Point Humidity Pressure Visibility Wind Dir Wind Speed Gust Speed Precip Events Conditions
12:00 AM 48 °F - 42 °F 75% 30.36 in 6 mi West 3.5 mph - -  
12:00 AM 48.2 °F - 42.8 °F 82% 30.36 in - WNW 3.5 mph - N/A   Clear
3:00 AM 48 °F - 42 °F 72% 30.36 in 6 mi Calm Calm - -  
3:00 AM 48.2 °F - 41.0 °F 76% 30.33 in - Calm Calm - N/A   Clear
6:00 AM 38 °F - 36 °F 89% 30.42 in 6 mi South 3.5 mph - -   Scattered Clouds
6:00 AM 37.4 °F 34.9 °F 35.6 °F 93% 30.36 in 6.2 mi South 3.5 mph - N/A   Scattered Clouds
7:10 AM 44.6 °F 40.7 °F 41.0 °F 87% 30.39 in 1.9 mi SE 6.9 mph - N/A   Scattered Clouds
7:15 AM 44.6 °F 40.7 °F 42.8 °F 93% 30.39 in 0.1 mi SSE 6.9 mph - N/A Fog Fog
7:30 AM 46.4 °F 42.9 °F 42.8 °F 87% 30.39 in 1.9 mi SSE 6.9 mph - N/A   Scattered Clouds
7:40 AM 46.4 °F 42.9 °F 44.6 °F 93% 30.39 in 5.0 mi SSE 6.9 mph - N/A   Scattered Clouds
9:00 AM 55 °F - 46 °F 62% 30.37 in 6 mi SSW 2.3 mph - -   Partly Cloudy
9:00 AM 55.4 °F - 44.6 °F 67% 30.39 in 6.2 mi SSW 2.3 mph - N/A   Scattered Clouds
12:00 PM 63 °F - 44 °F 39% 30.31 in 6 mi West 5.8 mph - -   Partly Cloudy
12:00 PM 64.4 °F - 44.6 °F 49% 30.33 in 6.2 mi West 5.8 mph - N/A   Partly Cloudy
3:00 PM 68 °F - 38 °F 23% 30.22 in 6 mi WNW 8.1 mph - -   Scattered Clouds
3:00 PM 68.0 °F - 39.2 °F 35% 30.27 in 6.2 mi West 8.1 mph - N/A   Partly Cloudy
6:00 PM 61 °F - 43 °F 39% 30.24 in 6 mi WNW 8.1 mph - -   Scattered Clouds
6:00 PM 60.8 °F - 42.8 °F 52% 30.27 in 6.2 mi West 6.9 mph - N/A   Partly Cloudy
9:00 PM 51 °F - 43 °F 66% 30.30 in 6 mi SW 6.9 mph - -   Clear
9:00 PM 51.8 °F - 42.8 °F 71% 30.30 in - SW 6.9 mph - N/A   Clear